Time,TemperatureF,DewpointF,PressureIn,WindDirection,WindDirectionDegrees,WindSpeedMPH,WindSpeedGustMPH,Humidity,HourlyPrecipIn,Conditions,Clouds,dailyrainin,SolarRadiationWatts/m^2,SoftwareType,DateUTC
2013-08-25 00:00:00,55.9,51.8,29.97,SW,234,0.0,1.0,86,0.00,RA,,0.00,0.0,WeatherDisplay:10.37,2013-08-24 23:00:00,
2013-08-25 00:05:00,55.8,51.7,29.97,SW,234,0.0,1.0,86,0.00,RA,,0.00,0.0,WeatherDisplay:10.37,2013-08-24 23:05:00,
2013-08-25 00:10:00,55.7,51.9,29.97,SW,234,0.0,0.0,87,0.00,RA,,0.00,0.0,WeatherDisplay:10.37,2013-08-24 23:10:00,
2013-08-25 00:15:00,55.7,51.9,29.97,SW,234,0.0,0.0,87,0.00,CLR,,0.00,0.0,WeatherDisplay:10.37,2013-08-24 23:15:00,
2013-08-25 00:20:00,55.5,51.7,29.97,SW,234,0.0,0.0,87,0.00,CLR,,0.00,0.0,WeatherDisplay:10.37,2013-08-24 23:20:00,
2013-08-25 00:25:00,55.5,51.7,29.97,SW,234,0.0,1.0,87,0.00,CLR,,0.00,0.0,WeatherDisplay:10.37,2013-08-24 23:25:00,
2013-08-25 00:30:00,55.4,51.6,29.98,SW,234,0.0,1.0,87,0.00,CLR,,0.00,0.0,WeatherDisplay:10.37,2013-08-24 23:30:00,
2013-08-25 00:35:00,55.3,51.5,29.98,SW,234,0.0,1.0,87,0.00,CLR,,0.00,0.0,WeatherDisplay:10.37,2013-08-24 23:35:00,
2013-08-25 00:40:00,55.1,51.3,29.98,SW,234,0.0,0.0,87,0.00,CLR,,0.00,0.0,WeatherDisplay:10.37,2013-08-24 23:40:00,
2013-08-25 00:45:00,55.1,51.6,29.98,SW,234,0.0,1.0,88,0.00,CLR,,0.00,0.0,WeatherDisplay:10.37,2013-08-24 23:45:00,
2013-08-25 00:50:00,55.0,51.5,29.98,SW,234,0.0,1.0,88,0.00,CLR,,0.00,0.0,WeatherDisplay:10.37,2013-08-24 23:50:00,
2013-08-25 01:00:00,54.9,51.4,29.98,SW,234,0.0,1.0,88,0.00,CLR,,0.00,0.0,WeatherDisplay:10.37,2013-08-25 00:00:00,
2013-08-25 01:10:00,54.8,51.3,29.98,SW,234,0.0,1.0,88,0.00,CLR,,0.00,0.0,WeatherDisplay:10.37,2013-08-25 00:10:00,
2013-08-25 01:15:00,54.8,51.6,29.99,SW,234,0.0,2.0,89,0.00,CLR,,0.00,0.0,WeatherDisplay:10.37,2013-08-25 00:15:00,
2013-08-25 01:20:00,54.7,51.2,29.99,SW,234,0.0,0.0,88,0.00,CLR,,0.00,0.0,WeatherDisplay:10.37,2013-08-25 00:20:00,
2013-08-25 01:25:00,54.6,51.4,29.99,SW,234,0.0,0.0,89,0.00,CLR,,0.00,0.0,WeatherDisplay:10.37,2013-08-25 00:25:00,
2013-08-25 01:35:00,54.6,51.4,29.99,SW,234,0.0,1.0,89,0.00,CLR,,0.00,0.0,WeatherDisplay:10.37,2013-08-25 00:35:00,
2013-08-25 01:40:00,54.5,51.3,29.99,SW,234,0.0,2.0,89,0.00,CLR,,0.00,0.0,WeatherDisplay:10.37,2013-08-25 00:40:00,
2013-08-25 01:45:00,54.4,50.9,29.99,SW,234,1.0,2.0,88,0.00,CLR,,0.00,0.0,WeatherDisplay:10.37,2013-08-25 00:45:00,
2013-08-25 01:50:00,54.4,50.9,29.99,SW,234,0.0,1.0,88,0.00,CLR,,0.00,0.0,WeatherDisplay:10.37,2013-08-25 00:50:00,
2013-08-25 01:55:00,54.4,50.9,29.99,SW,234,1.0,2.0,88,0.00,CLR,,0.00,0.0,WeatherDisplay:10.37,2013-08-25 00:55:00,
2013-08-25 02:00:00,54.4,50.9,29.99,SW,234,0.0,1.0,88,0.00,CLR,,0.00,0.0,WeatherDisplay:10.37,2013-08-25 01:00:00,
2013-08-25 02:05:00,54.4,50.9,29.99,SW,234,0.0,0.0,88,0.00,CLR,,0.00,0.0,WeatherDisplay:10.37,2013-08-25 01:05:00,
2013-08-25 02:10:00,54.4,50.9,29.99,SW,234,0.0,1.0,88,0.00,CLR,,0.00,0.0,WeatherDisplay:10.37,2013-08-25 01:10:00,
2013-08-25 02:15:00,54.4,50.9,29.99,SW,234,1.0,3.0,88,0.00,CLR,,0.00,0.0,WeatherDisplay:10.37,2013-08-25 01:15:00,
2013-08-25 02:20:00,54.4,50.9,29.99,SW,234,2.0,3.0,88,0.00,CLR,,0.00,0.0,WeatherDisplay:10.37,2013-08-25 01:20:00,
2013-08-25 02:25:00,54.4,50.9,29.99,SW,234,0.0,3.0,88,0.00,CLR,,0.00,0.0,WeatherDisplay:10.37,2013-08-25 01:25:00,
2013-08-25 02:30:00,54.2,50.7,29.99,SW,234,0.0,0.0,88,0.00,CLR,,0.00,0.0,WeatherDisplay:10.37,2013-08-25 01:30:00,
2013-08-25 02:35:00,54.1,50.3,30.00,SW,234,0.0,1.0,87,0.00,CLR,,0.00,0.0,WeatherDisplay:10.37,2013-08-25 01:35:00,
2013-08-25 02:40:00,53.8,50.0,29.99,SW,234,0.0,1.0,87,0.00,CLR,,0.00,0.0,WeatherDisplay:10.37,2013-08-25 01:40:00,
2013-08-25 02:45:00,53.4,49.7,30.00,SW,234,1.0,2.0,87,0.00,CLR,,0.00,0.0,WeatherDisplay:10.37,2013-08-25 01:45:00,
2013-08-25 02:50:00,53.0,49.0,30.00,South,170,1.0,3.0,86,0.00,CLR,,0.00,0.0,WeatherDisplay:10.37,2013-08-25 01:50:00,
2013-08-25 03:00:00,52.0,48.0,30.00,East,101,0.0,0.0,86,0.00,CLR,,0.00,0.0,WeatherDisplay:10.37,2013-08-25 02:00:00,
2013-08-25 03:10:00,50.8,46.8,30.00,East,101,0.0,0.0,86,0.00,CLR,,0.00,0.0,WeatherDisplay:10.37,2013-08-25 02:10:00,
2013-08-25 03:15:00,50.3,46.5,30.00,East,101,0.0,1.0,87,0.00,CLR,,0.00,0.0,WeatherDisplay:10.37,2013-08-25 02:15:00,
2013-08-25 03:20:00,49.8,46.4,30.00,East,101,0.0,1.0,88,0.00,CLR,,0.00,0.0,WeatherDisplay:10.37,2013-08-25 02:20:00,
2013-08-25 03:25:00,49.5,46.1,30.01,East,101,0.0,0.0,88,0.00,CLR,,0.00,0.0,WeatherDisplay:10.37,2013-08-25 02:25:00,
2013-08-25 03:30:00,49.1,46.0,30.01,East,101,0.0,0.0,89,0.00,CLR,,0.00,0.0,WeatherDisplay:10.37,2013-08-25 02:30:00,
2013-08-25 03:35:00,48.8,46.0,30.01,East,101,0.0,1.0,90,0.00,CLR,,0.00,0.0,WeatherDisplay:10.37,2013-08-25 02:35:00,
2013-08-25 03:40:00,48.6,46.1,30.01,East,101,0.0,1.0,91,0.01,RA,,0.01,0.0,WeatherDisplay:10.37,2013-08-25 02:40:00,
2013-08-25 03:45:00,48.4,45.9,30.00,East,101,0.0,1.0,91,0.00,RA,,0.01,0.0,WeatherDisplay:10.37,2013-08-25 02:45:00,
2013-08-25 03:50:00,48.2,46.0,30.00,East,101,1.0,2.0,92,0.00,RA,,0.01,0.0,WeatherDisplay:10.37,2013-08-25 02:50:00,
2013-08-25 03:55:00,48.1,45.9,30.00,East,101,1.0,2.0,92,0.00,,,0.01,0.0,WeatherDisplay:10.37,2013-08-25 02:55:00,
2013-08-25 04:00:00,48.0,45.8,30.00,East,101,1.0,2.0,92,0.00,CLR,,0.01,0.0,WeatherDisplay:10.37,2013-08-25 03:00:00,
2013-08-25 04:05:00,47.9,45.7,30.00,East,101,1.0,2.0,92,0.00,CLR,,0.01,0.0,WeatherDisplay:10.37,2013-08-25 03:05:00,
2013-08-25 04:10:00,47.8,45.6,30.01,East,101,0.0,1.0,92,0.00,CLR,,0.01,0.0,WeatherDisplay:10.37,2013-08-25 03:10:00,
2013-08-25 04:15:00,47.7,45.5,30.01,East,101,0.0,0.0,92,0.00,CLR,,0.01,0.0,WeatherDisplay:10.37,2013-08-25 03:15:00,
2013-08-25 04:20:00,47.5,45.6,30.01,East,101,0.0,0.0,93,0.00,CLR,,0.01,0.0,WeatherDisplay:10.37,2013-08-25 03:20:00,
2013-08-25 04:25:00,47.4,45.5,30.01,East,101,0.0,2.0,93,0.00,CLR,,0.01,0.0,WeatherDisplay:10.37,2013-08-25 03:25:00,
2013-08-25 04:30:00,47.2,45.3,30.00,East,101,2.0,3.0,93,0.00,CLR,,0.01,0.0,WeatherDisplay:10.37,2013-08-25 03:30:00,
2013-08-25 04:35:00,47.1,45.1,30.01,East,101,2.0,3.0,93,0.00,CLR,,0.01,0.0,WeatherDisplay:10.37,2013-08-25 03:35:00,
2013-08-25 04:40:00,46.9,45.0,30.00,East,101,1.0,3.0,93,0.00,CLR,,0.01,0.0,WeatherDisplay:10.37,2013-08-25 03:40:00,
2013-08-25 04:45:00,46.8,44.9,30.00,East,101,1.0,2.0,93,0.00,CLR,,0.01,0.0,WeatherDisplay:10.37,2013-08-25 03:45:00,
2013-08-25 04:50:00,46.6,44.7,30.01,East,101,0.0,1.0,93,0.00,CLR,,0.01,0.0,WeatherDisplay:10.37,2013-08-25 03:50:00,
2013-08-25 04:55:00,46.5,44.6,30.01,East,101,1.0,2.0,93,0.00,CLR,,0.01,0.0,WeatherDisplay:10.37,2013-08-25 03:55:00,
2013-08-25 05:00:00,46.3,44.4,30.00,East,101,2.0,3.0,93,0.00,CLR,,0.01,0.0,WeatherDisplay:10.37,2013-08-25 04:00:00,
2013-08-25 05:05:00,46.2,44.3,30.00,East,101,2.0,3.0,93,0.00,CLR,,0.01,0.0,WeatherDisplay:10.37,2013-08-25 04:05:00,
2013-08-25 05:10:00,46.1,44.2,30.01,East,101,1.0,2.0,93,0.00,CLR,,0.01,0.0,WeatherDisplay:10.37,2013-08-25 04:10:00,
2013-08-25 05:20:00,46.0,44.4,30.01,East,101,1.0,3.0,94,0.00,CLR,,0.01,0.0,WeatherDisplay:10.37,2013-08-25 04:20:00,
2013-08-25 05:25:00,46.0,44.4,30.01,East,101,0.0,2.0,94,0.00,CLR,,0.01,0.0,WeatherDisplay:10.37,2013-08-25 04:25:00,
2013-08-25 05:30:00,46.0,44.3,30.02,East,101,0.0,1.0,94,0.00,CLR,,0.01,0.0,WeatherDisplay:10.37,2013-08-25 04:30:00,
2013-08-25 05:35:00,45.8,44.2,30.02,East,101,0.0,1.0,94,0.00,CLR,,0.01,0.0,WeatherDisplay:10.37,2013-08-25 04:35:00,
2013-08-25 05:40:00,45.6,44.0,30.02,East,101,0.0,2.0,94,0.00,CLR,,0.01,0.0,WeatherDisplay:10.37,2013-08-25 04:40:00,
2013-08-25 05:45:00,45.4,43.8,30.02,East,101,1.0,3.0,94,0.00,CLR,,0.01,0.0,WeatherDisplay:10.37,2013-08-25 04:45:00,
2013-08-25 05:50:00,45.3,43.7,30.03,East,101,2.0,5.0,94,0.00,CLR,,0.01,0.0,WeatherDisplay:10.37,2013-08-25 04:50:00,
2013-08-25 05:55:00,45.2,43.6,30.03,East,101,0.0,3.0,94,0.00,CLR,,0.01,0.0,WeatherDisplay:10.37,2013-08-25 04:55:00,
2013-08-25 06:00:00,45.2,43.5,30.03,East,101,1.0,2.0,94,0.00,OVC,,0.01,0.0,WeatherDisplay:10.37,2013-08-25 05:00:00,
2013-08-25 06:05:00,45.1,43.5,30.03,East,101,1.0,3.0,94,0.00,OVC,,0.01,0.0,WeatherDisplay:10.37,2013-08-25 05:05:00,
2013-08-25 06:10:00,45.3,44.0,30.03,East,101,2.0,3.0,95,0.00,OVC,,0.01,0.0,WeatherDisplay:10.37,2013-08-25 05:10:00,
2013-08-25 06:20:00,45.9,44.8,30.04,ESE,104,0.0,1.0,96,0.00,BKN,,0.01,5.0,WeatherDisplay:10.37,2013-08-25 05:20:00,
2013-08-25 06:25:00,45.8,44.5,30.04,ESE,105,0.0,0.0,95,0.00,BKN,,0.01,7.0,WeatherDisplay:10.37,2013-08-25 05:25:00,
2013-08-25 06:30:00,45.7,44.3,30.04,ESE,105,1.0,2.0,95,0.00,BKN,,0.01,9.0,WeatherDisplay:10.37,2013-08-25 05:30:00,
2013-08-25 06:35:00,45.5,44.2,30.05,ESE,105,1.0,2.0,95,0.00,BKN,,0.01,9.0,WeatherDisplay:10.37,2013-08-25 05:35:00,
2013-08-25 06:40:00,45.4,44.1,30.05,ESE,105,1.0,2.0,95,0.00,BKN,,0.01,12.0,WeatherDisplay:10.37,2013-08-25 05:40:00,
2013-08-25 06:45:00,45.4,44.1,30.05,ESE,105,2.0,3.0,95,0.00,BKN,,0.01,18.0,WeatherDisplay:10.37,2013-08-25 05:45:00,
2013-08-25 06:50:00,45.8,44.7,30.05,ESE,105,1.0,2.0,96,0.00,BKN,,0.01,21.0,WeatherDisplay:10.37,2013-08-25 05:50:00,
2013-08-25 06:55:00,46.2,45.1,30.05,ESE,105,1.0,2.0,96,0.00,BKN,,0.01,21.0,WeatherDisplay:10.37,2013-08-25 05:55:00,
2013-08-25 07:00:00,46.9,46.1,30.05,ESE,105,1.0,2.0,97,0.00,BKN,,0.01,23.0,WeatherDisplay:10.37,2013-08-25 06:00:00,
2013-08-25 07:05:00,47.4,46.6,30.05,ESE,105,1.0,2.0,97,0.00,BKN,,0.01,16.0,WeatherDisplay:10.37,2013-08-25 06:05:00,
2013-08-25 07:10:00,48.0,47.2,30.05,ESE,105,0.0,2.0,97,0.00,BKN,,0.01,21.0,WeatherDisplay:10.37,2013-08-25 06:10:00,
2013-08-25 07:15:00,48.4,47.6,30.05,ESE,105,0.0,0.0,97,0.00,BKN,,0.01,35.0,WeatherDisplay:10.37,2013-08-25 06:15:00,
2013-08-25 07:20:00,48.7,47.9,30.06,ESE,105,0.0,0.0,97,0.00,BKN,,0.01,42.0,WeatherDisplay:10.37,2013-08-25 06:20:00,
2013-08-25 07:25:00,48.9,48.1,30.05,ESE,105,0.0,0.0,97,0.00,BKN,,0.01,54.0,WeatherDisplay:10.37,2013-08-25 06:25:00,
2013-08-25 07:30:00,49.1,48.3,30.05,ESE,105,0.0,0.0,97,0.00,BKN,,0.01,65.0,WeatherDisplay:10.37,2013-08-25 06:30:00,
2013-08-25 07:35:00,49.3,48.5,30.06,ESE,105,0.0,0.0,97,0.00,BKN,,0.01,56.0,WeatherDisplay:10.37,2013-08-25 06:35:00,
2013-08-25 07:40:00,49.6,48.8,30.06,ESE,105,0.0,0.0,97,0.00,BKN,,0.01,32.0,WeatherDisplay:10.37,2013-08-25 06:40:00,
2013-08-25 07:45:00,49.8,49.0,30.05,ESE,105,0.0,1.0,97,0.00,BKN,,0.01,32.0,WeatherDisplay:10.37,2013-08-25 06:45:00,
2013-08-25 07:50:00,50.0,49.2,30.06,ESE,105,0.0,1.0,97,0.00,BKN,,0.01,35.0,WeatherDisplay:10.37,2013-08-25 06:50:00,
2013-08-25 08:00:00,50.2,49.4,30.06,ESE,105,0.0,0.0,97,0.00,BKN,,0.01,62.0,WeatherDisplay:10.37,2013-08-25 07:00:00,
2013-08-25 08:05:00,50.3,49.5,30.06,ESE,105,0.0,0.0,97,0.00,BKN,,0.01,56.0,WeatherDisplay:10.37,2013-08-25 07:05:00,
2013-08-25 08:10:00,50.4,49.6,30.06,ESE,105,0.0,0.0,97,0.00,BKN,,0.01,79.0,WeatherDisplay:10.37,2013-08-25 07:10:00,
2013-08-25 08:15:00,50.6,49.8,30.06,ESE,105,0.0,0.0,97,0.00,BKN,,0.01,100.0,WeatherDisplay:10.37,2013-08-25 07:15:00,
2013-08-25 08:20:00,50.9,50.0,30.06,ESE,105,0.0,0.0,97,0.00,BKN,,0.01,107.0,WeatherDisplay:10.37,2013-08-25 07:20:00,
2013-08-25 08:25:00,51.1,50.3,30.06,ESE,105,0.0,0.0,97,0.00,BKN,,0.01,95.0,WeatherDisplay:10.37,2013-08-25 07:25:00,
2013-08-25 08:30:00,51.4,50.6,30.06,ESE,105,0.0,0.0,97,0.00,BKN,,0.01,141.0,WeatherDisplay:10.37,2013-08-25 07:30:00,
2013-08-25 08:35:00,51.8,50.9,30.07,ESE,105,0.0,0.0,97,0.00,BKN,,0.01,127.0,WeatherDisplay:10.37,2013-08-25 07:35:00,
2013-08-25 08:40:00,52.1,51.3,30.07,ESE,105,0.0,1.0,97,0.00,BKN,,0.01,111.0,WeatherDisplay:10.37,2013-08-25 07:40:00,
2013-08-25 08:45:00,52.5,51.6,30.07,ESE,105,0.0,1.0,97,0.00,BKN,,0.01,158.0,WeatherDisplay:10.37,2013-08-25 07:45:00,
2013-08-25 08:50:00,52.8,51.9,30.07,ESE,105,0.0,1.0,97,0.00,BKN,,0.01,148.0,WeatherDisplay:10.37,2013-08-25 07:50:00,
2013-08-25 09:00:00,53.5,52.7,30.07,ENE,78,1.0,3.0,97,0.00,BKN,,0.01,171.0,WeatherDisplay:10.37,2013-08-25 08:00:00,
2013-08-25 09:05:00,53.8,52.7,30.08,North,356,1.0,3.0,96,0.00,BKN,,0.01,135.0,WeatherDisplay:10.37,2013-08-25 08:05:00,
2013-08-25 09:10:00,54.0,52.6,30.08,North,355,0.0,1.0,95,0.00,BKN,,0.01,125.0,WeatherDisplay:10.37,2013-08-25 08:10:00,
2013-08-25 09:15:00,54.3,52.6,30.08,North,355,0.0,3.0,94,0.00,BKN,,0.01,127.0,WeatherDisplay:10.37,2013-08-25 08:15:00,
2013-08-25 09:20:00,54.6,52.9,30.08,North,355,0.0,1.0,94,0.00,BKN,,0.01,158.0,WeatherDisplay:10.37,2013-08-25 08:20:00,
2013-08-25 09:25:00,55.0,53.3,30.08,North,355,0.0,1.0,94,0.00,BKN,,0.01,163.0,WeatherDisplay:10.37,2013-08-25 08:25:00,
2013-08-25 09:30:00,55.3,53.3,30.08,North,355,0.0,0.0,93,0.00,BKN,,0.01,146.0,WeatherDisplay:10.37,2013-08-25 08:30:00,
2013-08-25 09:40:00,56.0,53.7,30.09,North,355,0.0,1.0,92,0.00,BKN,,0.01,162.0,WeatherDisplay:10.37,2013-08-25 08:40:00,
2013-08-25 09:50:00,56.9,54.3,30.09,North,355,0.0,1.0,91,0.00,BKN,,0.01,190.0,WeatherDisplay:10.37,2013-08-25 08:50:00,
2013-08-25 09:55:00,57.3,54.4,30.09,North,355,0.0,1.0,90,0.00,BKN,,0.01,225.0,WeatherDisplay:10.37,2013-08-25 08:55:00,
2013-08-25 10:00:00,57.8,54.9,30.09,North,355,0.0,1.0,90,0.00,BKN,,0.01,220.0,WeatherDisplay:10.37,2013-08-25 09:00:00,
2013-08-25 10:05:00,58.3,55.3,30.09,North,355,0.0,0.0,90,0.00,BKN,,0.01,246.0,WeatherDisplay:10.37,2013-08-25 09:05:00,
2013-08-25 10:10:00,58.6,55.4,30.09,North,355,0.0,1.0,89,0.00,BKN,,0.01,234.0,WeatherDisplay:10.37,2013-08-25 09:10:00,
2013-08-25 10:20:00,59.9,56.6,30.09,WSW,257,2.0,4.0,89,0.00,BKN,,0.01,250.0,WeatherDisplay:10.37,2013-08-25 09:20:00,
2013-08-25 10:25:00,60.1,56.5,30.09,WNW,292,3.0,5.0,88,0.00,BKN,,0.01,237.0,WeatherDisplay:10.37,2013-08-25 09:25:00,
2013-08-25 10:30:00,60.3,56.7,30.09,NW,305,2.0,6.0,88,0.00,BKN,,0.01,234.0,WeatherDisplay:10.37,2013-08-25 09:30:00,
2013-08-25 10:35:00,60.5,57.0,30.09,NW,313,1.0,5.0,88,0.00,BKN,,0.01,229.0,WeatherDisplay:10.37,2013-08-25 09:35:00,
2013-08-25 10:40:00,60.9,57.0,30.09,NW,319,2.0,5.0,87,0.00,BKN,,0.01,197.0,WeatherDisplay:10.37,2013-08-25 09:40:00,
2013-08-25 10:45:00,61.0,56.7,30.10,NW,319,0.0,3.0,86,0.00,BKN,,0.01,236.0,WeatherDisplay:10.37,2013-08-25 09:45:00,
2013-08-25 10:50:00,61.2,56.9,30.09,NW,319,0.0,2.0,86,0.00,BKN,,0.01,243.0,WeatherDisplay:10.37,2013-08-25 09:50:00,
2013-08-25 10:55:00,61.4,57.2,30.09,NW,319,1.0,3.0,86,0.00,BKN,,0.01,425.0,WeatherDisplay:10.37,2013-08-25 09:55:00,
2013-08-25 11:00:00,61.8,57.6,30.10,NW,319,1.0,3.0,86,0.00,SCT,,0.01,295.0,WeatherDisplay:10.37,2013-08-25 10:00:00,
2013-08-25 11:05:00,62.2,58.0,30.10,NW,325,1.0,4.0,86,0.00,SCT,,0.01,225.0,WeatherDisplay:10.37,2013-08-25 10:05:00,
2013-08-25 11:10:00,62.2,57.6,30.10,NNW,338,1.0,5.0,85,0.00,BKN,,0.01,251.0,WeatherDisplay:10.37,2013-08-25 10:10:00,
2013-08-25 11:20:00,62.4,57.8,30.10,NW,321,2.0,4.0,85,0.00,BKN,,0.01,206.0,WeatherDisplay:10.37,2013-08-25 10:20:00,
2013-08-25 11:30:00,62.6,58.0,30.10,NW,321,1.0,5.0,85,0.00,BKN,,0.01,188.0,WeatherDisplay:10.37,2013-08-25 10:30:00,
2013-08-25 11:35:00,62.7,58.1,30.10,NW,321,1.0,2.0,85,0.00,BKN,,0.01,221.0,WeatherDisplay:10.37,2013-08-25 10:35:00,
2013-08-25 11:40:00,62.8,57.9,30.10,NW,321,2.0,4.0,84,0.00,BKN,,0.01,279.0,WeatherDisplay:10.37,2013-08-25 10:40:00,
2013-08-25 11:45:00,62.8,57.9,30.10,NW,321,1.0,3.0,84,0.00,BKN,,0.01,243.0,WeatherDisplay:10.37,2013-08-25 10:45:00,
2013-08-25 11:50:00,62.9,58.3,30.10,NW,318,3.0,6.0,85,0.00,BKN,,0.01,223.0,WeatherDisplay:10.37,2013-08-25 10:50:00,
2013-08-25 12:00:00,62.9,58.0,30.10,NW,321,2.0,6.0,84,0.00,BKN,,0.01,214.0,WeatherDisplay:10.37,2013-08-25 11:00:00,
2013-08-25 12:05:00,62.9,58.0,30.10,NW,321,3.0,5.0,84,0.00,BKN,,0.01,243.0,WeatherDisplay:10.37,2013-08-25 11:05:00,
2013-08-25 12:10:00,63.0,58.1,30.10,NW,318,2.0,6.0,84,0.00,BKN,,0.01,274.0,WeatherDisplay:10.37,2013-08-25 11:10:00,
2013-08-25 12:15:00,63.0,58.1,30.11,NW,317,3.0,6.0,84,0.00,BKN,,0.01,237.0,WeatherDisplay:10.37,2013-08-25 11:15:00,
2013-08-25 12:20:00,63.1,58.5,30.11,NW,325,2.0,5.0,85,0.00,BKN,,0.01,214.0,WeatherDisplay:10.37,2013-08-25 11:20:00,
2013-08-25 12:25:00,63.1,58.2,30.11,NNW,338,1.0,5.0,84,0.00,BKN,,0.01,227.0,WeatherDisplay:10.37,2013-08-25 11:25:00,
2013-08-25 12:35:00,63.1,58.2,30.11,NW,318,3.0,6.0,84,0.00,BKN,,0.01,237.0,WeatherDisplay:10.37,2013-08-25 11:35:00,
2013-08-25 12:40:00,63.4,58.4,30.11,NW,319,2.0,4.0,84,0.00,BKN,,0.01,338.0,WeatherDisplay:10.37,2013-08-25 11:40:00,
2013-08-25 12:45:00,63.6,58.7,30.11,NNW,327,2.0,4.0,84,0.00,BKN,,0.01,376.0,WeatherDisplay:10.37,2013-08-25 11:45:00,
2013-08-25 12:50:00,63.9,58.6,30.10,NNW,338,3.0,6.0,83,0.00,SCT,,0.01,287.0,WeatherDisplay:10.37,2013-08-25 11:50:00,
2013-08-25 12:55:00,64.1,58.5,30.10,NNW,347,2.0,5.0,82,0.00,BKN,,0.01,186.0,WeatherDisplay:10.37,2013-08-25 11:55:00,
2013-08-25 13:00:00,64.2,58.2,30.10,North,352,0.0,2.0,81,0.00,BKN,,0.01,213.0,WeatherDisplay:10.37,2013-08-25 12:00:00,
2013-08-25 13:05:00,64.1,58.5,30.10,North,355,1.0,2.0,82,0.00,BKN,,0.01,218.0,WeatherDisplay:10.37,2013-08-25 12:05:00,
2013-08-25 13:10:00,64.2,58.6,30.10,North,355,1.0,3.0,82,0.00,BKN,,0.01,278.0,WeatherDisplay:10.37,2013-08-25 12:10:00,
2013-08-25 13:20:00,64.5,58.5,30.11,NNW,334,2.0,5.0,81,0.00,BKN,,0.01,239.0,WeatherDisplay:10.37,2013-08-25 12:20:00,
2013-08-25 13:25:00,64.7,59.1,30.11,NNW,333,2.0,4.0,82,0.00,BKN,,0.01,234.0,WeatherDisplay:10.37,2013-08-25 12:25:00,
2013-08-25 13:30:00,65.0,59.3,30.11,NNW,332,3.0,5.0,82,0.00,BKN,,0.01,255.0,WeatherDisplay:10.37,2013-08-25 12:30:00,
2013-08-25 13:35:00,65.3,59.3,30.11,NNW,330,2.0,5.0,81,0.00,BKN,,0.01,292.0,WeatherDisplay:10.37,2013-08-25 12:35:00,
2013-08-25 13:40:00,65.5,59.1,30.11,NW,314,2.0,6.0,80,0.00,BKN,,0.01,283.0,WeatherDisplay:10.37,2013-08-25 12:40:00,
2013-08-25 13:45:00,65.6,59.3,30.11,NW,305,1.0,5.0,80,0.00,BKN,,0.01,378.0,WeatherDisplay:10.37,2013-08-25 12:45:00,
2013-08-25 13:50:00,66.0,59.3,30.11,NW,308,1.0,5.0,79,0.00,SCT,,0.01,777.0,WeatherDisplay:10.37,2013-08-25 12:50:00,
2013-08-25 13:55:00,66.6,59.9,30.11,NW,311,0.0,3.0,79,0.00,FEW,,0.01,638.0,WeatherDisplay:10.37,2013-08-25 12:55:00,
2013-08-25 14:00:00,67.1,60.0,30.11,North,349,2.0,5.0,78,0.00,FEW,,0.01,401.0,WeatherDisplay:10.37,2013-08-25 13:00:00,
2013-08-25 14:05:00,67.2,59.7,30.11,North,360,2.0,5.0,77,0.00,SCT,,0.01,454.0,WeatherDisplay:10.37,2013-08-25 13:05:00,
2013-08-25 14:10:00,67.2,59.7,30.11,NNW,332,2.0,5.0,77,0.00,SCT,,0.01,250.0,WeatherDisplay:10.37,2013-08-25 13:10:00,
2013-08-25 14:15:00,67.2,60.5,30.11,NNW,339,2.0,6.0,79,0.00,BKN,,0.01,246.0,WeatherDisplay:10.37,2013-08-25 13:15:00,
2013-08-25 14:20:00,67.1,59.6,30.11,North,5,0.0,5.0,77,0.00,BKN,,0.01,267.0,WeatherDisplay:10.37,2013-08-25 13:20:00,
2013-08-25 14:25:00,67.1,59.6,30.11,NNE,18,0.0,2.0,77,0.00,BKN,,0.01,295.0,WeatherDisplay:10.37,2013-08-25 13:25:00,
2013-08-25 14:30:00,67.1,59.6,30.11,NNE,23,0.0,2.0,77,0.00,BKN,,0.01,299.0,WeatherDisplay:10.37,2013-08-25 13:30:00,
2013-08-25 14:35:00,67.1,59.6,30.11,NNE,23,0.0,3.0,77,0.00,BKN,,0.01,304.0,WeatherDisplay:10.37,2013-08-25 13:35:00,
2013-08-25 14:40:00,67.2,60.1,30.11,North,359,1.0,3.0,78,0.00,BKN,,0.01,332.0,WeatherDisplay:10.37,2013-08-25 13:40:00,
2013-08-25 14:45:00,67.3,60.6,30.11,NW,306,3.0,8.0,79,0.00,BKN,,0.01,269.0,WeatherDisplay:10.37,2013-08-25 13:45:00,
2013-08-25 14:50:00,67.4,59.9,30.11,NE,36,1.0,9.0,77,0.00,BKN,,0.01,183.0,WeatherDisplay:10.37,2013-08-25 13:50:00,
2013-08-25 14:55:00,66.9,59.8,30.11,ENE,61,1.0,6.0,78,0.00,BKN,,0.01,165.0,WeatherDisplay:10.37,2013-08-25 13:55:00,
2013-08-25 15:00:00,66.6,59.6,30.12,NE,49,2.0,6.0,78,0.00,BKN,,0.01,167.0,WeatherDisplay:10.37,2013-08-25 14:00:00,
2013-08-25 15:05:00,66.5,60.1,30.12,NE,40,1.0,3.0,80,0.00,BKN,,0.01,146.0,WeatherDisplay:10.37,2013-08-25 14:05:00,
2013-08-25 15:10:00,66.2,59.8,30.12,NE,55,1.0,5.0,80,0.00,BKN,,0.01,171.0,WeatherDisplay:10.37,2013-08-25 14:10:00,
2013-08-25 15:15:00,66.1,59.8,30.12,East,86,0.0,3.0,80,0.00,BKN,,0.01,197.0,WeatherDisplay:10.37,2013-08-25 14:15:00,
2013-08-25 15:20:00,66.1,59.7,30.12,East,99,2.0,6.0,80,0.00,BKN,,0.01,218.0,WeatherDisplay:10.37,2013-08-25 14:20:00,
2013-08-25 15:25:00,66.2,60.2,30.12,East,90,2.0,3.0,81,0.00,BKN,,0.01,269.0,WeatherDisplay:10.37,2013-08-25 14:25:00,
2013-08-25 15:30:00,66.4,60.0,30.12,East,87,3.0,6.0,80,0.00,BKN,,0.01,355.0,WeatherDisplay:10.37,2013-08-25 14:30:00,
2013-08-25 15:35:00,66.7,60.7,30.12,East,87,2.0,7.0,81,0.00,SCT,,0.01,302.0,WeatherDisplay:10.37,2013-08-25 14:35:00,
2013-08-25 15:40:00,66.9,60.1,30.12,East,95,3.0,7.0,79,0.00,SCT,,0.01,325.0,WeatherDisplay:10.37,2013-08-25 14:40:00,
2013-08-25 15:45:00,67.2,60.4,30.11,East,82,3.0,5.0,79,0.00,SCT,,0.01,679.0,WeatherDisplay:10.37,2013-08-25 14:45:00,
2013-08-25 15:50:00,67.7,60.6,30.12,ENE,58,5.0,8.0,78,0.00,FEW,,0.01,512.0,WeatherDisplay:10.37,2013-08-25 14:50:00,
2013-08-25 15:55:00,68.2,61.1,30.12,ENE,77,3.0,8.0,78,0.00,CLR,,0.01,534.0,WeatherDisplay:10.37,2013-08-25 14:55:00,
2013-08-25 16:00:00,68.5,61.4,30.12,ENE,68,2.0,7.0,78,0.00,CLR,,0.01,497.0,WeatherDisplay:10.37,2013-08-25 15:00:00,
2013-08-25 16:05:00,68.5,61.4,30.12,ENE,63,3.0,5.0,78,0.00,FEW,,0.01,290.0,WeatherDisplay:10.37,2013-08-25 15:05:00,
2013-08-25 16:10:00,68.0,60.9,30.12,ENE,65,3.0,6.0,78,0.00,SCT,,0.01,304.0,WeatherDisplay:10.37,2013-08-25 15:10:00,
2013-08-25 16:15:00,67.9,61.1,30.12,East,95,1.0,5.0,79,0.00,SCT,,0.01,290.0,WeatherDisplay:10.37,2013-08-25 15:15:00,
2013-08-25 16:20:00,67.8,60.7,30.12,ENE,74,3.0,6.0,78,0.00,SCT,,0.01,258.0,WeatherDisplay:10.37,2013-08-25 15:20:00,
2013-08-25 16:25:00,67.7,60.6,30.12,ENE,66,0.0,4.0,78,0.00,SCT,,0.01,297.0,WeatherDisplay:10.37,2013-08-25 15:25:00,
2013-08-25 16:30:00,67.8,61.0,30.12,ENE,75,1.0,3.0,79,0.00,SCT,,0.01,343.0,WeatherDisplay:10.37,2013-08-25 15:30:00,
2013-08-25 16:35:00,68.0,60.9,30.12,ENE,64,1.0,2.0,78,0.00,FEW,,0.01,418.0,WeatherDisplay:10.37,2013-08-25 15:35:00,
2013-08-25 16:40:00,68.2,61.1,30.12,NE,50,3.0,4.0,78,0.00,CLR,,0.01,387.0,WeatherDisplay:10.37,2013-08-25 15:40:00,
2013-08-25 16:45:00,68.3,61.2,30.12,NNE,29,0.0,5.0,78,0.00,FEW,,0.01,392.0,WeatherDisplay:10.37,2013-08-25 15:45:00,
2013-08-25 16:50:00,68.5,61.4,30.12,NNE,22,1.0,3.0,78,0.00,SCT,,0.01,199.0,WeatherDisplay:10.37,2013-08-25 15:50:00,
2013-08-25 16:55:00,68.4,60.5,30.12,NE,39,2.0,5.0,76,0.00,SCT,,0.01,271.0,WeatherDisplay:10.37,2013-08-25 15:55:00,
2013-08-25 17:00:00,68.1,60.6,30.12,NE,44,2.0,5.0,77,0.00,BKN,,0.01,197.0,WeatherDisplay:10.37,2013-08-25 16:00:00,
2013-08-25 17:05:00,68.0,60.9,30.12,NE,47,0.0,3.0,78,0.00,BKN,,0.01,181.0,WeatherDisplay:10.37,2013-08-25 16:05:00,
2013-08-25 17:10:00,68.1,61.0,30.12,NE,53,1.0,2.0,78,0.00,SCT,,0.01,343.0,WeatherDisplay:10.37,2013-08-25 16:10:00,
2013-08-25 17:20:00,68.2,61.1,30.12,ENE,58,1.0,4.0,78,0.00,SCT,,0.01,137.0,WeatherDisplay:10.37,2013-08-25 16:20:00,
2013-08-25 17:25:00,67.9,60.8,30.12,NE,46,2.0,6.0,78,0.00,SCT,,0.01,285.0,WeatherDisplay:10.37,2013-08-25 16:25:00,
2013-08-25 17:30:00,67.9,60.4,30.12,ENE,75,5.0,7.0,77,0.00,SCT,,0.01,264.0,WeatherDisplay:10.37,2013-08-25 16:30:00,
2013-08-25 17:35:00,67.9,60.1,30.12,East,80,1.0,5.0,76,0.00,SCT,,0.01,102.0,WeatherDisplay:10.37,2013-08-25 16:35:00,
2013-08-25 17:40:00,67.6,60.1,30.12,ENE,64,3.0,5.0,77,0.00,BKN,,0.01,93.0,WeatherDisplay:10.37,2013-08-25 16:40:00,
2013-08-25 17:50:00,67.2,60.4,30.12,ENE,69,2.0,4.0,79,0.00,BKN,,0.01,220.0,WeatherDisplay:10.37,2013-08-25 16:50:00,
2013-08-25 17:55:00,67.2,60.1,30.12,ENE,61,1.0,6.0,78,0.00,SCT,,0.01,186.0,WeatherDisplay:10.37,2013-08-25 16:55:00,
2013-08-25 18:00:00,67.3,60.2,30.12,ENE,61,2.0,7.0,78,0.00,SCT,,0.01,118.0,WeatherDisplay:10.37,2013-08-25 17:00:00,
2013-08-25 18:05:00,67.4,60.3,30.12,ENE,58,0.0,4.0,78,0.00,SCT,,0.01,185.0,WeatherDisplay:10.37,2013-08-25 17:05:00,
2013-08-25 18:10:00,67.4,60.3,30.13,NNE,33,1.0,5.0,78,0.00,SCT,,0.01,107.0,WeatherDisplay:10.37,2013-08-25 17:10:00,
2013-08-25 18:15:00,67.3,60.2,30.13,NE,37,3.0,4.0,78,0.00,SCT,,0.01,148.0,WeatherDisplay:10.37,2013-08-25 17:15:00,
2013-08-25 18:20:00,67.1,60.3,30.13,ENE,65,3.0,6.0,79,0.00,BKN,,0.01,84.0,WeatherDisplay:10.37,2013-08-25 17:20:00,
2013-08-25 18:25:00,66.8,60.1,30.13,ENE,77,1.0,6.0,79,0.00,BKN,,0.01,93.0,WeatherDisplay:10.37,2013-08-25 17:25:00,
2013-08-25 18:30:00,66.6,59.8,30.13,ENE,65,2.0,5.0,79,0.00,BKN,,0.01,98.0,WeatherDisplay:10.37,2013-08-25 17:30:00,
2013-08-25 18:35:00,66.3,59.9,30.13,NE,56,1.0,4.0,80,0.00,BKN,,0.01,79.0,WeatherDisplay:10.37,2013-08-25 17:35:00,
2013-08-25 18:40:00,66.1,59.8,30.13,NE,56,2.0,5.0,80,0.00,BKN,,0.01,70.0,WeatherDisplay:10.37,2013-08-25 17:40:00,
2013-08-25 18:45:00,65.9,59.9,30.13,NE,53,2.0,4.0,81,0.00,BKN,,0.01,65.0,WeatherDisplay:10.37,2013-08-25 17:45:00,
2013-08-25 18:50:00,65.7,60.1,30.13,NE,44,1.0,3.0,82,0.00,BKN,,0.01,56.0,WeatherDisplay:10.37,2013-08-25 17:50:00,
2013-08-25 19:00:00,65.2,59.6,30.13,NE,36,1.0,3.0,82,0.00,BKN,,0.01,47.0,WeatherDisplay:10.37,2013-08-25 18:00:00,
2013-08-25 19:05:00,64.9,59.6,30.13,NE,47,2.0,4.0,83,0.00,BKN,,0.01,42.0,WeatherDisplay:10.37,2013-08-25 18:05:00,
2013-08-25 19:10:00,64.6,59.3,30.13,NE,55,1.0,3.0,83,0.00,BKN,,0.01,42.0,WeatherDisplay:10.37,2013-08-25 18:10:00,
2013-08-25 19:15:00,64.3,59.0,30.13,NE,55,2.0,4.0,83,0.00,BKN,,0.01,42.0,WeatherDisplay:10.37,2013-08-25 18:15:00,
2013-08-25 19:20:00,64.0,59.1,30.13,ENE,60,2.0,4.0,84,0.00,BKN,,0.01,44.0,WeatherDisplay:10.37,2013-08-25 18:20:00,
2013-08-25 19:25:00,63.8,59.2,30.13,ENE,60,2.0,5.0,85,0.00,BKN,,0.01,42.0,WeatherDisplay:10.37,2013-08-25 18:25:00,
2013-08-25 19:30:00,63.5,58.9,30.13,NE,55,1.0,4.0,85,0.00,BKN,,0.01,37.0,WeatherDisplay:10.37,2013-08-25 18:30:00,
2013-08-25 19:35:00,63.4,59.1,30.13,ENE,57,2.0,4.0,86,0.00,BKN,,0.01,35.0,WeatherDisplay:10.37,2013-08-25 18:35:00,
2013-08-25 19:40:00,63.1,59.2,30.13,East,79,2.0,5.0,87,0.00,BKN,,0.01,32.0,WeatherDisplay:10.37,2013-08-25 18:40:00,
2013-08-25 19:45:00,62.9,59.0,30.13,East,91,2.0,5.0,87,0.00,BKN,,0.01,30.0,WeatherDisplay:10.37,2013-08-25 18:45:00,
2013-08-25 19:50:00,62.7,58.8,30.14,East,88,1.0,6.0,87,0.00,BKN,,0.01,25.0,WeatherDisplay:10.37,2013-08-25 18:50:00,
2013-08-25 19:55:00,62.5,58.8,30.14,ENE,77,1.0,5.0,88,0.00,BKN,,0.01,19.0,WeatherDisplay:10.37,2013-08-25 18:55:00,
2013-08-25 20:00:00,62.2,58.6,30.14,ENE,61,2.0,5.0,88,0.00,BKN,,0.01,12.0,WeatherDisplay:10.37,2013-08-25 19:00:00,
2013-08-25 20:05:00,61.9,58.3,30.14,NE,54,2.0,4.0,88,0.00,BKN,,0.01,9.0,WeatherDisplay:10.37,2013-08-25 19:05:00,
2013-08-25 20:10:00,61.6,58.3,30.14,ENE,71,2.0,5.0,89,0.00,BKN,,0.01,7.0,WeatherDisplay:10.37,2013-08-25 19:10:00,
2013-08-25 20:20:00,61.0,57.7,30.14,ENE,64,2.0,4.0,89,0.00,BKN,,0.01,5.0,WeatherDisplay:10.37,2013-08-25 19:20:00,
2013-08-25 20:25:00,60.7,57.5,30.14,ENE,63,2.0,5.0,89,0.00,OVC,,0.01,0.0,WeatherDisplay:10.37,2013-08-25 19:25:00,
2013-08-25 20:30:00,60.5,57.6,30.14,East,81,2.0,5.0,90,0.00,OVC,,0.01,0.0,WeatherDisplay:10.37,2013-08-25 19:30:00,
2013-08-25 20:40:00,60.2,57.6,30.14,East,87,3.0,5.0,91,0.00,OVC,,0.01,0.0,WeatherDisplay:10.37,2013-08-25 19:40:00,
2013-08-25 20:45:00,60.1,57.5,30.14,East,96,5.0,6.0,91,0.00,OVC,,0.01,0.0,WeatherDisplay:10.37,2013-08-25 19:45:00,
2013-08-25 20:50:00,60.0,57.4,30.14,East,93,5.0,8.0,91,0.00,OVC,,0.01,0.0,WeatherDisplay:10.37,2013-08-25 19:50:00,
2013-08-25 21:00:00,60.0,57.7,30.14,East,93,2.0,6.0,92,0.00,CLR,,0.01,0.0,WeatherDisplay:10.37,2013-08-25 20:00:00,
2013-08-25 21:05:00,59.9,57.6,30.14,East,92,1.0,6.0,92,0.00,CLR,,0.01,0.0,WeatherDisplay:10.37,2013-08-25 20:05:00,
2013-08-25 21:10:00,59.8,57.5,30.14,East,90,2.0,6.0,92,0.00,CLR,,0.01,0.0,WeatherDisplay:10.37,2013-08-25 20:10:00,
2013-08-25 21:15:00,59.9,57.8,30.14,East,86,3.0,6.0,93,0.00,CLR,,0.01,0.0,WeatherDisplay:10.37,2013-08-25 20:15:00,
2013-08-25 21:20:00,59.9,57.9,30.14,ENE,77,3.0,6.0,93,0.00,CLR,,0.01,0.0,WeatherDisplay:10.37,2013-08-25 20:20:00,
2013-08-25 21:30:00,60.0,58.0,30.15,East,95,1.0,3.0,93,0.00,CLR,,0.01,0.0,WeatherDisplay:10.37,2013-08-25 20:30:00,
2013-08-25 21:40:00,59.9,57.9,30.15,East,93,0.0,0.0,93,0.00,CLR,,0.01,0.0,WeatherDisplay:10.37,2013-08-25 20:40:00,
2013-08-25 21:50:00,59.8,57.8,30.15,East,93,0.0,0.0,93,0.00,CLR,,0.01,0.0,WeatherDisplay:10.37,2013-08-25 20:50:00,
2013-08-25 21:55:00,59.8,57.8,30.15,East,93,0.0,0.0,93,0.00,CLR,,0.01,0.0,WeatherDisplay:10.37,2013-08-25 20:55:00,
2013-08-25 22:00:00,59.8,57.8,30.15,East,93,0.0,0.0,93,0.00,CLR,,0.01,0.0,WeatherDisplay:10.37,2013-08-25 21:00:00,
2013-08-25 22:10:00,59.7,57.7,30.15,East,93,0.0,0.0,93,0.00,CLR,,0.01,0.0,WeatherDisplay:10.37,2013-08-25 21:10:00,
2013-08-25 22:15:00,59.7,57.7,30.15,East,93,0.0,0.0,93,0.00,CLR,,0.01,0.0,WeatherDisplay:10.37,2013-08-25 21:15:00,
2013-08-25 22:20:00,59.7,58.0,30.15,East,93,0.0,1.0,94,0.00,CLR,,0.01,0.0,WeatherDisplay:10.37,2013-08-25 21:20:00,
2013-08-25 22:25:00,59.7,58.0,30.15,East,93,0.0,0.0,94,0.00,CLR,,0.01,0.0,WeatherDisplay:10.37,2013-08-25 21:25:00,
2013-08-25 22:30:00,59.8,58.0,30.15,East,93,0.0,1.0,94,0.00,CLR,,0.01,0.0,WeatherDisplay:10.37,2013-08-25 21:30:00,
2013-08-25 22:40:00,59.7,58.0,30.15,East,93,0.0,1.0,94,0.00,CLR,,0.01,0.0,WeatherDisplay:10.37,2013-08-25 21:40:00,
2013-08-25 22:45:00,59.7,58.0,30.16,East,93,0.0,2.0,94,0.00,CLR,,0.01,0.0,WeatherDisplay:10.37,2013-08-25 21:45:00,
2013-08-25 22:50:00,59.7,58.0,30.16,ESE,117,1.0,2.0,94,0.00,CLR,,0.01,0.0,WeatherDisplay:10.37,2013-08-25 21:50:00,
2013-08-25 23:00:00,59.6,57.9,30.16,South,169,0.0,1.0,94,0.00,CLR,,0.01,0.0,WeatherDisplay:10.37,2013-08-25 22:00:00,
2013-08-25 23:05:00,59.5,57.5,30.16,South,169,0.0,0.0,93,0.00,CLR,,0.01,0.0,WeatherDisplay:10.37,2013-08-25 22:05:00,
2013-08-25 23:10:00,59.3,57.3,30.16,South,169,0.0,1.0,93,0.00,CLR,,0.01,0.0,WeatherDisplay:10.37,2013-08-25 22:10:00,
2013-08-25 23:15:00,58.9,56.6,30.16,South,169,0.0,1.0,92,0.00,CLR,,0.01,0.0,WeatherDisplay:10.37,2013-08-25 22:15:00,
2013-08-25 23:20:00,58.4,55.8,30.16,South,169,0.0,1.0,91,0.00,CLR,,0.01,0.0,WeatherDisplay:10.37,2013-08-25 22:20:00,
2013-08-25 23:25:00,57.9,55.3,30.16,South,169,1.0,2.0,91,0.00,CLR,,0.01,0.0,WeatherDisplay:10.37,2013-08-25 22:25:00,
2013-08-25 23:30:00,57.4,54.8,30.16,South,169,0.0,2.0,91,0.00,CLR,,0.01,0.0,WeatherDisplay:10.37,2013-08-25 22:30:00,
2013-08-25 23:40:00,56.6,54.0,30.16,South,169,0.0,1.0,91,0.00,CLR,,0.01,0.0,WeatherDisplay:10.37,2013-08-25 22:40:00,
2013-08-25 23:45:00,56.1,53.5,30.16,South,169,0.0,2.0,91,0.00,CLR,,0.01,0.0,WeatherDisplay:10.37,2013-08-25 22:45:00,
2013-08-25 23:50:00,55.8,53.2,30.16,South,169,1.0,2.0,91,0.00,CLR,,0.01,0.0,WeatherDisplay:10.37,2013-08-25 22:50:00,